| time (UTC) | temp F | wind direction | speed MPH | gust MPH | rain 1hr in | rain 24hr in | rain mn in | humidity % | barometer mb |
| 20260902220904 | 73 | 214 | 5.0 | 13.0 | 0.00 | 0.09 | 0.08 | 14 | 1015.2 |
| 20260902220404 | 74 | 228 | 6.0 | 14.0 | 0.00 | 0.09 | 0.08 | 13 | 1015.1 |
| 20260902215904 | 74 | 227 | 6.0 | 13.0 | 0.00 | 0.09 | 0.08 | 13 | 1015.2 |
| 20260902215404 | 73 | 229 | 2.0 | 13.0 | 0.00 | 0.09 | 0.08 | 12 | 1015.1 |
| 20260902214904 | 73 | 208 | 5.0 | 12.0 | 0.00 | 0.09 | 0.08 | 16 | 1015.1 |
| 20260902214404 | 73 | 219 | 3.0 | 13.0 | 0.00 | 0.09 | 0.08 | 15 | 1015.2 |
| 20260902213904 | 73 | 231 | 3.0 | 13.0 | 0.00 | 0.09 | 0.08 | 17 | 1015.1 |
| 20260902213404 | 73 | 217 | 5.0 | 12.0 | 0.00 | 0.09 | 0.08 | 16 | 1015.0 |
| 20260902212904 | 74 | 226 | 4.0 | 17.0 | 0.00 | 0.09 | 0.08 | 16 | 1015.1 |
| 20260902211904 | 74 | 211 | 4.0 | 15.0 | 0.00 | 0.09 | 0.08 | 16 | 1015.1 |
| 20260902211404 | 74 | 226 | 6.0 | 12.0 | 0.00 | 0.09 | 0.08 | 15 | 1015.1 |
| 20260902210904 | 73 | 214 | 7.0 | 12.0 | 0.00 | 0.09 | 0.08 | 17 | 1015.2 |
| 20260902205904 | 73 | 213 | 3.0 | 10.0 | 0.00 | 0.09 | 0.08 | 15 | 1015.3 |
| 20260902205404 | 74 | 232 | 4.0 | 16.0 | 0.00 | 0.09 | 0.08 | 16 | 1015.2 |
| 20260902204404 | 74 | 227 | 6.0 | 16.0 | 0.00 | 0.09 | 0.08 | 15 | 1015.3 |
| 20260902203904 | 74 | 207 | 5.0 | 10.0 | 0.00 | 0.09 | 0.08 | 17 | 1015.4 |
| 20260902202404 | 74 | 205 | 1.0 | 7.0 | 0.00 | 0.09 | 0.08 | 19 | 1015.3 |
| 20260902201904 | 74 | 226 | 9.0 | 23.0 | 0.00 | 0.09 | 0.08 | 21 | 1015.3 |
| 20260902201404 | 73 | 245 | 1.0 | 12.0 | 0.00 | 0.09 | 0.08 | 22 | 1015.3 |
| 20260902200904 | 73 | 161 | 2.0 | 10.0 | 0.00 | 0.09 | 0.08 | 26 | 1015.4 |
| 20260902200404 | 72 | 209 | 3.0 | 9.0 | 0.00 | 0.09 | 0.08 | 27 | 1015.3 |
| 20260902195904 | 72 | 128 | 3.0 | 12.0 | 0.00 | 0.09 | 0.08 | 30 | 1015.3 |
| 20260902195404 | 71 | 182 | 3.0 | 8.0 | 0.00 | 0.09 | 0.08 | 27 | 1015.3 |
| 20260902194904 | 70 | 132 | 2.0 | 9.0 | 0.00 | 0.09 | 0.08 | 33 | 1015.4 |
| 20260902194404 | 70 | 120 | 8.0 | 14.0 | 0.00 | 0.09 | 0.08 | 33 | 1015.6 |
| 20260902192904 | 69 | 31 | 2.0 | 8.0 | 0.00 | 0.09 | 0.08 | 36 | 1015.8 |
| 20260902191904 | 67 | 37 | 1.0 | 3.0 | 0.01 | 0.09 | 0.08 | 41 | 1016.2 |
| 20260902191404 | 67 | 38 | 1.0 | 3.0 | 0.01 | 0.09 | 0.08 | 40 | 1016.3 |
| 20260902190904 | 66 | 53 | 0.0 | 3.0 | 0.01 | 0.09 | 0.08 | 43 | 1016.3 |
| 20260902190405 | 66 | 285 | 0.0 | 1.0 | 0.02 | 0.09 | 0.08 | 49 | 1016.3 |
| 20260902185904 | 65 | 281 | 0.0 | 0.0 | 0.02 | 0.09 | 0.08 | 51 | 1016.5 |
| 20260902185404 | 64 | 291 | 0.0 | 7.0 | 0.02 | 0.09 | 0.08 | 50 | 1016.5 |
| 20260902184404 | 63 | 335 | 0.0 | 6.0 | 0.03 | 0.09 | 0.08 | 56 | 1016.6 |
| 20260902183404 | 62 | 268 | 0.0 | 3.0 | 0.03 | 0.09 | 0.08 | 60 | 1016.8 |
| 20260902182904 | 61 | 17 | 0.0 | 0.0 | 0.03 | 0.09 | 0.08 | 64 | 1017.1 |
| 20260902182404 | 60 | 15 | 0.0 | 0.0 | 0.02 | 0.08 | 0.07 | 63 | 1017.1 |
| 20260902181904 | 60 | 17 | 0.0 | 0.0 | 0.02 | 0.08 | 0.07 | 63 | 1017.3 |
| 20260902181404 | 60 | 17 | 0.0 | 0.0 | 0.02 | 0.08 | 0.07 | 63 | 1017.3 |
| 20260902180904 | 60 | 17 | 0.0 | 0.0 | 0.02 | 0.08 | 0.07 | 62 | 1017.3 |
| 20260902180405 | 61 | 17 | 0.0 | 0.0 | 0.01 | 0.07 | 0.06 | 61 | 1017.4 |
| 20260902175904 | 62 | 223 | 0.0 | 0.0 | 0.01 | 0.07 | 0.06 | 59 | 1017.4 |
| 20260902175404 | 63 | 226 | 0.0 | 2.0 | 0.01 | 0.07 | 0.06 | 50 | 1017.6 |
| 20260902174404 | 67 | 216 | 8.0 | 17.0 | 0.00 | 0.06 | 0.05 | 41 | 1017.5 |
| 20260902173404 | 68 | 46 | 0.0 | 0.0 | 0.00 | 0.06 | 0.05 | 41 | 1016.6 |
| 20260902172904 | 68 | 46 | 0.0 | 3.0 | 0.00 | 0.06 | 0.05 | 38 | 1016.6 |
| 20260902172404 | 68 | 46 | 1.0 | 8.0 | 0.00 | 0.06 | 0.05 | 38 | 1016.6 |
| 20260902171906 | 68 | 44 | 1.0 | 2.0 | 0.00 | 0.06 | 0.05 | 42 | 1016.6 |
| 20260902171404 | 67 | 37 | 0.0 | 12.0 | 0.00 | 0.06 | 0.05 | 44 | 1016.7 |
| 20260902170904 | 66 | 20 | 1.0 | 5.0 | 0.00 | 0.06 | 0.05 | 43 | 1016.8 |
| 20260902170404 | 66 | 27 | 1.0 | 5.0 | 0.00 | 0.06 | 0.05 | 47 | 1016.7 |
| 20260902165904 | 65 | 24 | 2.0 | 6.0 | 0.00 | 0.06 | 0.05 | 47 | 1016.8 |
| 20260902165404 | 65 | 39 | 2.0 | 10.0 | 0.00 | 0.06 | 0.05 | 47 | 1016.9 |
| 20260902164904 | 64 | 73 | 2.0 | 8.0 | 0.00 | 0.06 | 0.05 | 53 | 1016.9 |
| 20260902164404 | 63 | 114 | 0.0 | 7.0 | 0.00 | 0.06 | 0.05 | 62 | 1017.0 |
| 20260902163904 | 61 | 34 | 1.0 | 12.0 | 0.00 | 0.06 | 0.05 | 66 | 1016.9 |
| 20260902163404 | 60 | 309 | 0.0 | 1.0 | 0.00 | 0.06 | 0.05 | 71 | 1016.8 |
| 20260902162904 | 59 | 310 | 0.0 | 3.0 | 0.00 | 0.06 | 0.05 | 74 | 1016.9 |
| 20260902162404 | 58 | 311 | 1.0 | 5.0 | 0.00 | 0.06 | 0.05 | 75 | 1016.8 |
| 20260902161904 | 57 | 325 | 0.0 | 0.0 | 0.00 | 0.06 | 0.05 | 76 | 1017.0 |
| 20260902161404 | 57 | 325 | 0.0 | 0.0 | 0.00 | 0.06 | 0.05 | 78 | 1017.1 |
| 20260902160904 | 56 | 325 | 0.0 | 0.0 | 0.00 | 0.06 | 0.05 | 79 | 1017.0 |
| 20260902160404 | 56 | 325 | 0.0 | 0.0 | 0.00 | 0.06 | 0.05 | 79 | 1017.2 |
| 20260902155904 | 55 | 325 | 0.0 | 0.0 | 0.00 | 0.06 | 0.05 | 80 | 1017.2 |
| 20260902155404 | 55 | 325 | 0.0 | 0.0 | 0.00 | 0.06 | 0.05 | 80 | 1017.1 |
| 20260902154904 | 55 | 329 | 0.0 | 0.0 | 0.00 | 0.06 | 0.05 | 80 | 1017.2 |
| 20260902153404 | 52 | 340 | 0.0 | 0.0 | 0.00 | 0.06 | 0.05 | 81 | 1017.2 |
| 20260902152404 | 51 | 340 | 0.0 | 0.0 | 0.00 | 0.06 | 0.05 | 80 | 1017.4 |
| 20260902151904 | 50 | 340 | 0.0 | 0.0 | 0.00 | 0.06 | 0.05 | 80 | 1017.5 |
| 20260902151404 | 50 | 340 | 0.0 | 0.0 | 0.00 | 0.06 | 0.05 | 80 | 1017.6 |
| 20260902150904 | 50 | 340 | 0.0 | 0.0 | 0.00 | 0.07 | 0.05 | 80 | 1017.6 |
| 20260902150404 | 50 | 340 | 0.0 | 0.0 | 0.00 | 0.07 | 0.05 | 80 | 1017.7 |
| 20260902145904 | 50 | 340 | 0.0 | 0.0 | 0.00 | 0.08 | 0.05 | 80 | 1017.7 |
| 20260902145404 | 50 | 340 | 0.0 | 0.0 | 0.00 | 0.08 | 0.05 | 80 | 1017.7 |
| 20260902144404 | 49 | 340 | 0.0 | 0.0 | 0.00 | 0.11 | 0.05 | 80 | 1017.8 |
| 20260902143904 | 49 | 340 | 0.0 | 0.0 | 0.00 | 0.12 | 0.05 | 80 | 1017.7 |
| 20260902143404 | 49 | 341 | 0.0 | 0.0 | 0.00 | 0.12 | 0.05 | 80 | 1017.8 |
| 20260902142904 | 48 | 341 | 0.0 | 0.0 | 0.00 | 0.13 | 0.05 | 79 | 1017.8 |
| 20260902142404 | 48 | 341 | 0.0 | 0.0 | 0.00 | 0.13 | 0.05 | 79 | 1017.9 |
| 20260902141904 | 48 | 341 | 0.0 | 0.0 | 0.00 | 0.13 | 0.05 | 79 | 1017.9 |
| 20260902141403 | 48 | 341 | 0.0 | 0.0 | 0.00 | 0.13 | 0.05 | 79 | 1017.9 |
| 20260902140904 | 48 | 341 | 0.0 | 0.0 | 0.00 | 0.13 | 0.05 | 79 | 1017.9 |
| 20260902135904 | 48 | 341 | 0.0 | 0.0 | 0.00 | 0.13 | 0.05 | 79 | 1018.0 |
| 20260902135404 | 48 | 341 | 0.0 | 0.0 | 0.00 | 0.13 | 0.05 | 79 | 1017.9 |
| 20260902134404 | 47 | 341 | 0.0 | 0.0 | 0.00 | 0.13 | 0.05 | 79 | 1018.0 |
| 20260902133904 | 47 | 341 | 0.0 | 0.0 | 0.00 | 0.13 | 0.05 | 79 | 1018.0 |
| 20260902133404 | 47 | 341 | 0.0 | 0.0 | 0.00 | 0.13 | 0.05 | 79 | 1018.0 |
| 20260902132904 | 47 | 341 | 0.0 | 0.0 | 0.00 | 0.13 | 0.05 | 79 | 1018.0 |
| 20260902132404 | 47 | 341 | 0.0 | 0.0 | 0.00 | 0.13 | 0.05 | 79 | 1018.0 |
| 20260902131904 | 47 | 341 | 0.0 | 2.0 | 0.00 | 0.13 | 0.05 | 78 | 1018.0 |
| 20260902131404 | 47 | 342 | 0.0 | 0.0 | 0.00 | 0.13 | 0.05 | 78 | 1018.1 |
| 20260902130904 | 47 | 342 | 0.0 | 0.0 | 0.00 | 0.13 | 0.05 | 78 | 1018.1 |
| 20260902130404 | 47 | 342 | 0.0 | 0.0 | 0.00 | 0.13 | 0.05 | 78 | 1018.1 |
| 20260902125405 | 47 | 342 | 0.0 | 0.0 | 0.00 | 0.14 | 0.05 | 78 | 1018.0 |
| 20260902124404 | 48 | 342 | 0.0 | 0.0 | 0.00 | 0.15 | 0.05 | 78 | 1017.8 |
| 20260902123904 | 48 | 342 | 0.0 | 0.0 | 0.00 | 0.16 | 0.05 | 78 | 1017.7 |
| 20260902123404 | 48 | 342 | 0.0 | 0.0 | 0.00 | 0.16 | 0.05 | 78 | 1017.8 |
| 20260902122905 | 48 | 342 | 0.0 | 0.0 | 0.00 | 0.16 | 0.05 | 78 | 1017.8 |
| 20260902121904 | 48 | 342 | 0.0 | 0.0 | 0.00 | 0.16 | 0.05 | 78 | 1017.8 |
| 20260902121404 | 49 | 342 | 0.0 | 0.0 | 0.00 | 0.16 | 0.05 | 78 | 1017.7 |
| 20260902120404 | 49 | 342 | 0.0 | 0.0 | 0.00 | 0.16 | 0.05 | 78 | 1017.8 |
| 20260902115404 | 49 | 342 | 0.0 | 0.0 | 0.00 | 0.16 | 0.05 | 78 | 1017.8 |
| 20260902114904 | 49 | 342 | 0.0 | 0.0 | 0.00 | 0.16 | 0.05 | 78 | 1017.9 |
| 20260902114404 | 49 | 342 | 0.0 | 0.0 | 0.00 | 0.16 | 0.05 | 78 | 1018.0 |
| 20260902113904 | 49 | 342 | 0.0 | 0.0 | 0.00 | 0.16 | 0.05 | 78 | 1017.9 |
| 20260902113404 | 49 | 342 | 0.0 | 0.0 | 0.00 | 0.16 | 0.05 | 78 | 1018.0 |
| 20260902112904 | 49 | 342 | 0.0 | 0.0 | 0.00 | 0.16 | 0.05 | 78 | 1018.0 |
| 20260902112405 | 49 | 342 | 0.0 | 0.0 | 0.00 | 0.16 | 0.05 | 78 | 1018.0 |
| 20260902111904 | 50 | 342 | 0.0 | 0.0 | 0.00 | 0.16 | 0.05 | 78 | 1017.9 |
| 20260902111404 | 50 | 342 | 0.0 | 0.0 | 0.00 | 0.16 | 0.05 | 78 | 1017.9 |
| 20260902110904 | 50 | 342 | 0.0 | 0.0 | 0.00 | 0.16 | 0.05 | 78 | 1017.9 |
| 20260902110404 | 50 | 342 | 0.0 | 0.0 | 0.00 | 0.16 | 0.05 | 78 | 1018.0 |
| 20260902105904 | 50 | 342 | 0.0 | 0.0 | 0.00 | 0.16 | 0.05 | 78 | 1018.0 |
| 20260902105404 | 50 | 342 | 0.0 | 0.0 | 0.00 | 0.16 | 0.05 | 78 | 1018.1 |
| 20260902104905 | 50 | 342 | 0.0 | 0.0 | 0.00 | 0.16 | 0.05 | 78 | 1018.3 |
| 20260902103904 | 50 | 342 | 0.0 | 0.0 | 0.00 | 0.16 | 0.05 | 78 | 1018.3 |
| 20260902103404 | 50 | 342 | 0.0 | 0.0 | 0.00 | 0.16 | 0.05 | 78 | 1018.5 |
| 20260902102904 | 51 | 342 | 0.0 | 0.0 | 0.00 | 0.16 | 0.05 | 78 | 1018.5 |
| 20260902102404 | 51 | 342 | 0.0 | 0.0 | 0.00 | 0.16 | 0.05 | 78 | 1018.3 |
| 20260902101404 | 51 | 346 | 0.0 | 0.0 | 0.00 | 0.17 | 0.05 | 78 | 1018.0 |
| 20260902100904 | 51 | 346 | 0.0 | 0.0 | 0.00 | 0.17 | 0.05 | 78 | 1018.0 |
| 20260902100404 | 51 | 346 | 0.0 | 0.0 | 0.00 | 0.17 | 0.05 | 78 | 1018.1 |
| 20260902095904 | 52 | 346 | 0.0 | 0.0 | 0.01 | 0.17 | 0.05 | 78 | 1018.0 |
| 20260902094904 | 52 | 346 | 0.0 | 0.0 | 0.01 | 0.17 | 0.05 | 78 | 1017.9 |
| 20260902094404 | 52 | 346 | 0.0 | 0.0 | 0.01 | 0.17 | 0.05 | 79 | 1018.0 |
| 20260902093904 | 52 | 346 | 0.0 | 9.0 | 0.01 | 0.17 | 0.05 | 79 | 1018.1 |
| 20260902093404 | 51 | 329 | 1.0 | 9.0 | 0.01 | 0.17 | 0.05 | 79 | 1018.2 |
| 20260902092904 | 51 | 338 | 0.0 | 0.0 | 0.01 | 0.17 | 0.05 | 78 | 1018.5 |
| 20260902092404 | 51 | 235 | 0.0 | 0.0 | 0.01 | 0.17 | 0.05 | 78 | 1018.6 |
| 20260902091904 | 51 | 234 | 0.0 | 0.0 | 0.01 | 0.17 | 0.05 | 78 | 1018.6 |
| 20260902091404 | 51 | 234 | 0.0 | 0.0 | 0.02 | 0.17 | 0.05 | 78 | 1018.6 |
| 20260902090404 | 51 | 234 | 0.0 | 0.0 | 0.03 | 0.17 | 0.05 | 78 | 1019.0 |
| 20260902085904 | 51 | 234 | 0.0 | 0.0 | 0.03 | 0.16 | 0.04 | 78 | 1018.9 |
| 20260902084904 | 51 | 234 | 0.0 | 0.0 | 0.04 | 0.16 | 0.04 | 78 | 1018.7 |
| 20260902084404 | 51 | 232 | 0.0 | 0.0 | 0.04 | 0.16 | 0.04 | 78 | 1019.0 |
| 20260902083904 | 51 | 232 | 0.0 | 0.0 | 0.04 | 0.16 | 0.04 | 78 | 1019.1 |
| 20260902083404 | 51 | 232 | 0.0 | 0.0 | 0.04 | 0.16 | 0.04 | 78 | 1019.2 |
| 20260902082904 | 50 | 232 | 0.0 | 0.0 | 0.04 | 0.16 | 0.04 | 78 | 1019.3 |
| 20260902081904 | 50 | 232 | 0.0 | 0.0 | 0.04 | 0.16 | 0.04 | 78 | 1019.4 |
| 20260902081404 | 50 | 232 | 0.0 | 0.0 | 0.03 | 0.15 | 0.03 | 78 | 1019.3 |
| 20260902080904 | 50 | 232 | 0.0 | 0.0 | 0.03 | 0.15 | 0.03 | 78 | 1019.4 |
| 20260902080404 | 49 | 232 | 1.0 | 6.0 | 0.02 | 0.14 | 0.02 | 77 | 1019.3 |
| 20260902075904 | 49 | 178 | 0.0 | 9.0 | 0.01 | 0.13 | 0.01 | 77 | 1019.2 |
| 20260902074904 | 49 | 223 | 0.0 | 3.0 | 0.00 | 0.12 | 0.00 | 76 | 1018.6 |
| 20260902073904 | 48 | 219 | 0.0 | 0.0 | 0.00 | 0.12 | 0.00 | 76 | 1018.2 |
| 20260902073404 | 48 | 219 | 0.0 | 0.0 | 0.00 | 0.12 | 0.00 | 76 | 1018.1 |
| 20260902072904 | 48 | 220 | 0.0 | 0.0 | 0.00 | 0.12 | 0.00 | 76 | 1018.1 |
| 20260902072404 | 48 | 220 | 0.0 | 0.0 | 0.00 | 0.12 | 0.00 | 76 | 1017.9 |
| 20260902071904 | 48 | 220 | 0.0 | 0.0 | 0.00 | 0.12 | 0.00 | 76 | 1018.0 |
| 20260902071404 | 48 | 213 | 0.0 | 0.0 | 0.00 | 0.12 | 0.00 | 76 | 1018.1 |
| 20260902070904 | 48 | 213 | 0.0 | 0.0 | 0.00 | 0.12 | 0.00 | 75 | 1018.0 |
| 20260902070404 | 48 | 213 | 1.0 | 2.0 | 0.00 | 0.12 | 0.00 | 75 | 1018.1 |
| 20260902065904 | 48 | 160 | 0.0 | 0.0 | 0.00 | 0.12 | 0.00 | 75 | 1018.2 |
| 20260902065404 | 48 | 160 | 0.0 | 0.0 | 0.00 | 0.12 | 0.00 | 75 | 1018.2 |
| 20260902064404 | 48 | 160 | 0.0 | 0.0 | 0.00 | 0.12 | 0.00 | 75 | 1018.2 |
| 20260902062904 | 49 | 160 | 0.0 | 0.0 | 0.00 | 0.12 | 0.00 | 74 | 1018.2 |
| 20260902061904 | 49 | 160 | 0.0 | 0.0 | 0.00 | 0.12 | 0.00 | 74 | 1018.2 |
| 20260902061404 | 49 | 160 | 0.0 | 0.0 | 0.00 | 0.12 | 0.00 | 74 | 1018.3 |
| 20260902060904 | 49 | 160 | 0.0 | 0.0 | 0.00 | 0.12 | 0.00 | 74 | 1018.3 |
| 20260902055904 | 50 | 160 | 0.0 | 0.0 | 0.00 | 0.12 | 0.12 | 73 | 1018.3 |
| 20260902055404 | 50 | 160 | 0.0 | 0.0 | 0.00 | 0.12 | 0.12 | 73 | 1018.4 |
| 20260902054404 | 50 | 160 | 0.0 | 0.0 | 0.00 | 0.12 | 0.12 | 73 | 1018.5 |
| 20260902053904 | 50 | 160 | 0.0 | 0.0 | 0.00 | 0.12 | 0.12 | 72 | 1018.5 |
| 20260902053404 | 51 | 160 | 0.0 | 0.0 | 0.00 | 0.12 | 0.12 | 72 | 1018.5 |
| 20260902052904 | 51 | 160 | 0.0 | 0.0 | 0.00 | 0.12 | 0.12 | 72 | 1018.5 |
| 20260902052404 | 51 | 160 | 0.0 | 0.0 | 0.00 | 0.12 | 0.12 | 72 | 1018.4 |
| 20260902051904 | 51 | 160 | 0.0 | 0.0 | 0.00 | 0.12 | 0.12 | 72 | 1018.4 |
| 20260902051404 | 51 | 160 | 0.0 | 0.0 | 0.00 | 0.12 | 0.12 | 72 | 1018.5 |
| 20260902050904 | 52 | 160 | 0.0 | 0.0 | 0.00 | 0.12 | 0.12 | 71 | 1018.5 |
| 20260902050404 | 52 | 160 | 0.0 | 0.0 | 0.00 | 0.12 | 0.12 | 71 | 1018.6 |
| 20260902045904 | 52 | 160 | 0.0 | 0.0 | 0.00 | 0.12 | 0.12 | 71 | 1018.6 |
| 20260902045404 | 52 | 160 | 0.0 | 0.0 | 0.00 | 0.12 | 0.12 | 71 | 1018.6 |
| 20260902044904 | 52 | 160 | 0.0 | 0.0 | 0.00 | 0.12 | 0.12 | 71 | 1018.7 |
| 20260902044404 | 52 | 160 | 0.0 | 0.0 | 0.00 | 0.12 | 0.12 | 71 | 1018.7 |
| 20260902043904 | 52 | 160 | 0.0 | 0.0 | 0.00 | 0.12 | 0.12 | 71 | 1018.6 |
| 20260902042904 | 53 | 160 | 0.0 | 0.0 | 0.00 | 0.12 | 0.12 | 71 | 1018.5 |
| 20260902042404 | 53 | 186 | 0.0 | 0.0 | 0.00 | 0.12 | 0.12 | 70 | 1018.5 |
| 20260902041904 | 53 | 221 | 0.0 | 0.0 | 0.00 | 0.12 | 0.12 | 70 | 1018.4 |
| 20260902041404 | 53 | 221 | 0.0 | 0.0 | 0.00 | 0.12 | 0.12 | 69 | 1018.4 |
| 20260902040905 | 54 | 221 | 0.0 | 0.0 | 0.00 | 0.12 | 0.12 | 69 | 1018.4 |
| 20260902035404 | 55 | 221 | 0.0 | 0.0 | 0.00 | 0.12 | 0.12 | 69 | 1018.3 |
| 20260902034904 | 55 | 221 | 0.0 | 0.0 | 0.00 | 0.12 | 0.12 | 69 | 1018.2 |
| 20260902034404 | 55 | 221 | 0.0 | 0.0 | 0.00 | 0.12 | 0.12 | 68 | 1018.2 |
| 20260902033904 | 55 | 221 | 0.0 | 0.0 | 0.00 | 0.12 | 0.12 | 66 | 1018.1 |
| 20260902033404 | 56 | 221 | 0.0 | 0.0 | 0.01 | 0.12 | 0.12 | 65 | 1018.1 |
| 20260902032904 | 56 | 221 | 0.0 | 0.0 | 0.01 | 0.12 | 0.12 | 64 | 1018.1 |
| 20260902031904 | 57 | 221 | 0.0 | 0.0 | 0.01 | 0.12 | 0.12 | 64 | 1018.1 |
| 20260902031406 | 57 | 221 | 0.0 | 0.0 | 0.01 | 0.12 | 0.12 | 65 | 1018.1 |
| 20260902030904 | 58 | 221 | 0.0 | 0.0 | 0.01 | 0.12 | 0.12 | 65 | 1018.1 |
| 20260902030404 | 58 | 221 | 0.0 | 0.0 | 0.01 | 0.12 | 0.12 | 65 | 1018.1 |
| 20260902025904 | 59 | 221 | 0.0 | 0.0 | 0.01 | 0.12 | 0.12 | 63 | 1018.0 |
| 20260902025404 | 59 | 221 | 0.0 | 0.0 | 0.01 | 0.12 | 0.12 | 61 | 1017.9 |
| 20260902024904 | 60 | 220 | 0.0 | 0.0 | 0.01 | 0.12 | 0.12 | 60 | 1017.9 |
| 20260902023404 | 61 | 221 | 0.0 | 2.0 | 0.00 | 0.11 | 0.11 | 53 | 1018.5 |
| 20260902022404 | 62 | 201 | 0.0 | 0.0 | 0.00 | 0.11 | 0.11 | 52 | 1017.7 |
| 20260902021904 | 62 | 201 | 0.0 | 0.0 | 0.00 | 0.11 | 0.11 | 52 | 1017.7 |
| 20260902021404 | 63 | 201 | 0.0 | 0.0 | 0.00 | 0.11 | 0.11 | 50 | 1017.7 |
| 20260902020904 | 64 | 201 | 0.0 | 0.0 | 0.00 | 0.11 | 0.11 | 50 | 1017.7 |
| 20260902020404 | 64 | 201 | 0.0 | 0.0 | 0.00 | 0.11 | 0.11 | 45 | 1017.6 |
| 20260902015904 | 65 | 200 | 0.0 | 0.0 | 0.00 | 0.11 | 0.11 | 44 | 1017.4 |
| 20260902015404 | 66 | 195 | 0.0 | 1.0 | 0.00 | 0.11 | 0.11 | 41 | 1017.3 |
| 20260902014904 | 67 | 190 | 3.0 | 17.0 | 0.00 | 0.11 | 0.11 | 40 | 1017.7 |
| 20260902014404 | 68 | 207 | 6.0 | 13.0 | 0.00 | 0.11 | 0.11 | 37 | 1017.4 |
| 20260902013904 | 69 | 184 | 0.0 | 0.0 | 0.00 | 0.11 | 0.11 | 43 | 1016.9 |
| 20260902012904 | 69 | 173 | 0.0 | 0.0 | 0.00 | 0.11 | 0.11 | 41 | 1016.8 |
| 20260902012404 | 69 | 173 | 0.0 | 0.0 | 0.00 | 0.11 | 0.11 | 40 | 1016.6 |
| 20260902011905 | 70 | 171 | 0.0 | 0.0 | 0.00 | 0.11 | 0.11 | 39 | 1016.7 |
| 20260902011404 | 70 | 171 | 0.0 | 0.0 | 0.00 | 0.11 | 0.11 | 39 | 1016.8 |
| 20260902010904 | 71 | 211 | 0.0 | 0.0 | 0.00 | 0.11 | 0.11 | 41 | 1016.8 |
| 20260902010404 | 71 | 227 | 0.0 | 0.0 | 0.00 | 0.11 | 0.11 | 42 | 1016.8 |
| 20260902005405 | 71 | 227 | 0.0 | 0.0 | 0.00 | 0.11 | 0.11 | 38 | 1016.8 |
| 20260902004904 | 72 | 227 | 0.0 | 0.0 | 0.00 | 0.11 | 0.11 | 34 | 1016.8 |
| 20260902004404 | 72 | 227 | 0.0 | 0.0 | 0.00 | 0.11 | 0.11 | 34 | 1016.9 |
| 20260902003904 | 72 | 227 | 0.0 | 0.0 | 0.00 | 0.11 | 0.11 | 34 | 1016.9 |
| 20260902003404 | 72 | 227 | 0.0 | 0.0 | 0.00 | 0.11 | 0.11 | 33 | 1016.8 |
| 20260902002904 | 72 | 227 | 0.0 | 0.0 | 0.00 | 0.11 | 0.11 | 33 | 1016.8 |
| 20260902002404 | 73 | 228 | 0.0 | 5.0 | 0.00 | 0.11 | 0.11 | 31 | 1016.8 |
| 20260902001904 | 73 | 223 | 1.0 | 5.0 | 0.00 | 0.11 | 0.11 | 32 | 1016.9 |
| 20260902001404 | 73 | 229 | 1.0 | 3.0 | 0.00 | 0.11 | 0.11 | 32 | 1016.9 |
| 20260902000406 | 74 | 225 | 0.0 | 2.0 | 0.00 | 0.11 | 0.11 | 31 | 1017.0 |
| 20260901235904 | 75 | 225 | 0.0 | 3.0 | 0.00 | 0.11 | 0.11 | 29 | 1017.0 |
| 20260901234904 | 76 | 229 | 1.0 | 8.0 | 0.00 | 0.11 | 0.11 | 30 | 1017.0 |
| 20260901234404 | 76 | 236 | 1.0 | 3.0 | 0.00 | 0.11 | 0.11 | 27 | 1017.0 |
| 20260901233904 | 75 | 217 | 4.0 | 8.0 | 0.00 | 0.11 | 0.11 | 29 | 1017.0 |
| 20260901233404 | 75 | 250 | 3.0 | 6.0 | 0.00 | 0.11 | 0.11 | 29 | 1016.9 |
| 20260901232904 | 74 | 227 | 2.0 | 3.0 | 0.00 | 0.11 | 0.11 | 33 | 1017.0 |
| 20260901232404 | 74 | 217 | 1.0 | 3.0 | 0.00 | 0.11 | 0.11 | 30 | 1017.1 |
| 20260901231904 | 74 | 217 | 1.0 | 5.0 | 0.00 | 0.11 | 0.11 | 32 | 1017.1 |
| 20260901231404 | 74 | 221 | 1.0 | 6.0 | 0.00 | 0.11 | 0.11 | 32 | 1017.1 |
| 20260901230904 | 74 | 221 | 0.0 | 3.0 | 0.00 | 0.11 | 0.11 | 32 | 1017.3 |
| 20260901230404 | 74 | 234 | 2.0 | 3.0 | 0.00 | 0.11 | 0.11 | 32 | 1017.3 |
| 20260901225904 | 74 | 253 | 1.0 | 6.0 | 0.00 | 0.11 | 0.11 | 31 | 1017.3 |
| 20260901224904 | 75 | 234 | 3.0 | 8.0 | 0.00 | 0.11 | 0.11 | 30 | 1017.4 |
| 20260901224405 | 75 | 253 | 1.0 | 9.0 | 0.00 | 0.11 | 0.11 | 30 | 1017.3 |
| 20260901223904 | 75 | 233 | 4.0 | 9.0 | 0.00 | 0.11 | 0.11 | 30 | 1017.4 |
| 20260901223404 | 75 | 222 | 3.0 | 6.0 | 0.00 | 0.11 | 0.11 | 31 | 1017.4 |
| 20260901222904 | 74 | 231 | 3.0 | 9.0 | 0.00 | 0.11 | 0.11 | 31 | 1017.5 |
| 20260901222404 | 74 | 226 | 1.0 | 5.0 | 0.00 | 0.11 | 0.11 | 33 | 1017.5 |
| 20260901221904 | 74 | 247 | 0.0 | 3.0 | 0.00 | 0.11 | 0.11 | 35 | 1017.5 |